WIF6RB ENBR-EKBI

Flight info

Callsign WIF6RB
Flight time 1h 3m
Altitude 25000
Route TUXIL DCT ZOL DCT RAMUD DCT BAKOG DCT EPILO DCT GELBA
Aircraft DH8B/M-SDFGR/S

Departure

Time 2026-04-30 11:14
Airport Bergen Airport, Flesland (ENBR)

Arrival

Time 2026-04-30 12:17
Airport Billund Airport (EKBI)
Time Latitude Longitude Altitude Speed Heading
2026-04-30 11:04 60.29012 5.22832 171 ft 0 kts 212°
2026-04-30 11:06 60.29083 5.22871 173 ft 0 kts 47°
2026-04-30 11:12 60.29086 5.22873 173 ft 2 kts 14°
2026-04-30 11:12 60.29081 5.22848 173 ft 6 kts 206°
2026-04-30 11:13 60.29047 5.22760 172 ft 10 kts 275°
2026-04-30 11:13 60.29045 5.22586 172 ft 15 kts 263°
2026-04-30 11:13 60.29010 5.22383 172 ft 17 kts 198°
2026-04-30 11:13 60.28929 5.22255 167 ft 20 kts 263°
2026-04-30 11:14 60.28901 5.21965 160 ft 6 kts 210°
2026-04-30 11:14 60.28596 5.22064 156 ft 99 kts 170°
2026-04-30 11:14 60.27700 5.22362 396 ft 146 kts 170°
2026-04-30 11:14 60.26648 5.22740 992 ft 163 kts 172°
2026-04-30 11:15 60.25488 5.23120 1641 ft 172 kts 172°
2026-04-30 11:15 60.24281 5.23514 2278 ft 182 kts 172°
2026-04-30 11:15 60.23041 5.23931 2763 ft 194 kts 171°
2026-04-30 11:15 60.21682 5.24384 3290 ft 201 kts 171°
2026-04-30 11:16 60.20288 5.24854 3833 ft 205 kts 172°
2026-04-30 11:16 60.18865 5.25334 4370 ft 208 kts 172°
2026-04-30 11:16 60.17430 5.25817 4921 ft 210 kts 173°
2026-04-30 11:16 60.15977 5.26302 5463 ft 212 kts 173°
2026-04-30 11:17 60.14531 5.26788 5985 ft 214 kts 174°
2026-04-30 11:17 60.13049 5.27287 6521 ft 216 kts 174°
2026-04-30 11:17 60.11560 5.27787 7043 ft 217 kts 175°
2026-04-30 11:17 60.10078 5.28279 7534 ft 219 kts 175°
2026-04-30 11:18 60.08561 5.28762 8038 ft 221 kts 176°
2026-04-30 11:18 60.05499 5.29560 9047 ft 223 kts 176°
2026-04-30 11:18 60.03951 5.29957 9564 ft 225 kts 176°
2026-04-30 11:19 60.02414 5.30382 10083 ft 226 kts 175°
2026-04-30 11:19 60.00847 5.30806 10575 ft 229 kts 176°
2026-04-30 11:19 59.99256 5.31218 11043 ft 231 kts 176°
2026-04-30 11:19 59.97649 5.31647 11533 ft 233 kts 175°
2026-04-30 11:20 59.96033 5.32088 12025 ft 235 kts 175°
2026-04-30 11:20 59.94403 5.32520 12529 ft 237 kts 176°
2026-04-30 11:20 59.92762 5.32951 13035 ft 239 kts 176°
2026-04-30 11:20 59.91105 5.33395 13553 ft 240 kts 175°
2026-04-30 11:21 59.89447 5.33839 14083 ft 241 kts 176°
2026-04-30 11:21 59.87794 5.34275 14563 ft 243 kts 176°
2026-04-30 11:21 59.86113 5.34719 15038 ft 244 kts 176°
2026-04-30 11:21 59.84419 5.35168 15523 ft 245 kts 176°
2026-04-30 11:22 59.82714 5.35619 16009 ft 247 kts 176°
2026-04-30 11:22 59.81006 5.36073 16505 ft 248 kts 176°
2026-04-30 11:22 59.79288 5.36501 17008 ft 248 kts 178°
2026-04-30 11:22 59.77587 5.36793 17508 ft 249 kts 178°
2026-04-30 11:23 59.75853 5.37049 18021 ft 250 kts 179°
2026-04-30 11:23 59.74110 5.37303 18544 ft 251 kts 179°
2026-04-30 11:23 59.70600 5.37904 19495 ft 254 kts 178°
2026-04-30 11:24 59.68830 5.38192 19961 ft 256 kts 179°
2026-04-30 11:24 59.67073 5.38468 20427 ft 257 kts 179°
2026-04-30 11:24 59.65281 5.38766 20899 ft 259 kts 178°
2026-04-30 11:25 59.61661 5.39616 21888 ft 264 kts 175°
2026-04-30 11:25 59.59832 5.40119 22392 ft 266 kts 176°
2026-04-30 11:25 59.56116 5.41018 23423 ft 271 kts 176°
2026-04-30 11:26 59.52368 5.41994 24408 ft 275 kts 176°
2026-04-30 11:26 59.50455 5.42463 24856 ft 277 kts 176°
2026-04-30 11:26 59.48539 5.42941 25315 ft 279 kts 176°
2026-04-30 11:27 59.46593 5.43435 25483 ft 291 kts 176°
2026-04-30 11:27 59.44529 5.43951 25526 ft 304 kts 175°
2026-04-30 11:27 59.42383 5.44487 25537 ft 315 kts 175°
2026-04-30 11:27 59.40177 5.45045 25533 ft 322 kts 175°
2026-04-30 11:28 59.35694 5.46630 25549 ft 332 kts 171°
2026-04-30 11:28 59.33422 5.47521 25537 ft 334 kts 172°
2026-04-30 11:28 59.31163 5.48341 25535 ft 333 kts 173°
2026-04-30 11:29 59.28879 5.49128 25531 ft 333 kts 172°
2026-04-30 11:29 59.26594 5.49960 25527 ft 334 kts 172°
2026-04-30 11:29 59.22015 5.51652 25525 ft 333 kts 172°
2026-04-30 11:30 59.17467 5.53267 25514 ft 333 kts 172°
2026-04-30 11:30 59.15180 5.54110 25519 ft 333 kts 172°
2026-04-30 11:30 59.12902 5.54935 25514 ft 333 kts 172°
2026-04-30 11:31 59.10640 5.55734 25519 ft 333 kts 172°
2026-04-30 11:31 59.08360 5.56547 25519 ft 333 kts 172°
2026-04-30 11:31 59.06074 5.57379 25512 ft 333 kts 172°
2026-04-30 11:31 59.03793 5.58205 25518 ft 333 kts 172°
2026-04-30 11:32 59.01506 5.59015 25519 ft 333 kts 172°
2026-04-30 11:32 58.99222 5.59822 25517 ft 333 kts 172°
2026-04-30 11:32 58.96961 5.60634 25511 ft 333 kts 172°
2026-04-30 11:33 58.92384 5.62273 25510 ft 333 kts 172°
2026-04-30 11:33 58.90096 5.63075 25511 ft 333 kts 172°
2026-04-30 11:33 58.87851 5.63876 25515 ft 333 kts 169°
2026-04-30 11:33 58.85690 5.65513 25505 ft 337 kts 150°
2026-04-30 11:34 58.83798 5.68199 25511 ft 338 kts 143°
2026-04-30 11:34 58.81904 5.70896 25515 ft 337 kts 149°
2026-04-30 11:34 58.79851 5.73077 25519 ft 336 kts 155°
2026-04-30 11:34 58.77779 5.75071 25522 ft 336 kts 154°
2026-04-30 11:35 58.75731 5.77268 25513 ft 336 kts 151°
2026-04-30 11:35 58.73729 5.79627 25512 ft 337 kts 149°
2026-04-30 11:35 58.71760 5.81990 25513 ft 337 kts 150°
2026-04-30 11:35 58.69751 5.84321 25511 ft 336 kts 151°
2026-04-30 11:36 58.67711 5.86569 25509 ft 336 kts 152°
2026-04-30 11:36 58.65686 5.88829 25510 ft 336 kts 151°
2026-04-30 11:36 58.63698 5.91122 25505 ft 337 kts 150°
2026-04-30 11:36 58.61685 5.93423 25499 ft 336 kts 151°
2026-04-30 11:37 58.59652 5.95683 25496 ft 336 kts 152°
2026-04-30 11:37 58.57625 5.97944 25501 ft 336 kts 151°
2026-04-30 11:37 58.55632 6.00210 25496 ft 337 kts 151°
2026-04-30 11:37 58.53616 6.02493 25506 ft 336 kts 151°
2026-04-30 11:38 58.51588 6.04751 25500 ft 336 kts 152°
2026-04-30 11:38 58.49561 6.07005 25504 ft 336 kts 151°
2026-04-30 11:38 58.47538 6.09281 25505 ft 336 kts 151°
2026-04-30 11:38 58.45544 6.11525 25499 ft 336 kts 151°
2026-04-30 11:39 58.43517 6.13776 25501 ft 336 kts 152°
2026-04-30 11:39 58.41491 6.16018 25500 ft 336 kts 152°
2026-04-30 11:39 58.39463 6.18283 25503 ft 336 kts 151°
2026-04-30 11:39 58.37437 6.20549 25492 ft 337 kts 151°
2026-04-30 11:40 58.35428 6.22769 25476 ft 339 kts 152°
2026-04-30 11:40 58.33380 6.25025 25482 ft 338 kts 151°
2026-04-30 11:40 58.32030 6.26521 25480 ft 338 kts 151°
2026-04-30 11:40 58.29996 6.28781 25482 ft 338 kts 151°
2026-04-30 11:41 58.27290 6.31777 25487 ft 339 kts 151°
2026-04-30 11:41 58.25249 6.34015 25478 ft 338 kts 152°
2026-04-30 11:41 58.23873 6.35521 25489 ft 338 kts 151°
2026-04-30 11:41 58.21864 6.37733 25484 ft 339 kts 152°
2026-04-30 11:42 58.19816 6.40002 25490 ft 340 kts 152°
2026-04-30 11:42 58.17763 6.42259 25483 ft 340 kts 152°
2026-04-30 11:42 58.15699 6.44506 25482 ft 340 kts 152°
2026-04-30 11:42 58.13671 6.46717 25483 ft 340 kts 152°
2026-04-30 11:43 58.11616 6.48973 25481 ft 340 kts 152°
2026-04-30 11:43 58.09566 6.51219 25482 ft 340 kts 152°
2026-04-30 11:43 58.07509 6.53452 25492 ft 340 kts 152°
2026-04-30 11:43 58.05454 6.55676 25485 ft 340 kts 152°
2026-04-30 11:44 58.03427 6.57884 25484 ft 340 kts 152°
2026-04-30 11:44 58.01370 6.60128 25480 ft 341 kts 152°
2026-04-30 11:44 57.99303 6.62368 25488 ft 341 kts 152°
2026-04-30 11:44 57.97233 6.64598 25492 ft 341 kts 152°
2026-04-30 11:45 57.95206 6.66782 25494 ft 338 kts 152°
2026-04-30 11:45 57.93160 6.68990 25487 ft 338 kts 152°
2026-04-30 11:45 57.91102 6.71219 25496 ft 340 kts 152°
2026-04-30 11:45 57.89066 6.73413 25489 ft 343 kts 152°
2026-04-30 11:46 57.86983 6.75639 25481 ft 346 kts 152°
2026-04-30 11:46 57.84892 6.77880 25491 ft 345 kts 152°
2026-04-30 11:46 57.82818 6.80113 25493 ft 340 kts 151°
2026-04-30 11:46 57.80764 6.82309 25482 ft 339 kts 151°
2026-04-30 11:47 57.78704 6.84502 25492 ft 341 kts 151°
2026-04-30 11:47 57.76639 6.86711 25486 ft 342 kts 152°
2026-04-30 11:47 57.74596 6.88903 25489 ft 340 kts 151°
2026-04-30 11:47 57.72533 6.91095 25487 ft 339 kts 151°
2026-04-30 11:48 57.70487 6.93260 25492 ft 342 kts 152°
2026-04-30 11:48 57.68399 6.95488 25488 ft 344 kts 151°
2026-04-30 11:48 57.66309 6.97717 25491 ft 343 kts 151°
2026-04-30 11:48 57.64268 6.99869 25492 ft 342 kts 152°
2026-04-30 11:49 57.62186 7.02060 25487 ft 343 kts 152°
2026-04-30 11:49 57.60102 7.04271 25488 ft 344 kts 151°
2026-04-30 11:49 57.58022 7.06479 25497 ft 343 kts 152°
2026-04-30 11:49 57.55949 7.08655 25499 ft 339 kts 151°
2026-04-30 11:50 57.53910 7.10782 25494 ft 339 kts 151°
2026-04-30 11:50 57.51854 7.12947 25491 ft 338 kts 151°
2026-04-30 11:50 57.49796 7.15125 25506 ft 339 kts 151°
2026-04-30 11:50 57.47733 7.17289 25503 ft 340 kts 151°
2026-04-30 11:51 57.45663 7.19442 25495 ft 340 kts 152°
2026-04-30 11:51 57.43619 7.21576 25490 ft 342 kts 150°
2026-04-30 11:51 57.41545 7.23743 25498 ft 342 kts 150°
2026-04-30 11:51 57.39467 7.25914 25504 ft 342 kts 150°
2026-04-30 11:52 57.37391 7.28075 25504 ft 342 kts 150°
2026-04-30 11:52 57.35335 7.30210 25503 ft 342 kts 151°
2026-04-30 11:52 57.33254 7.32371 25497 ft 343 kts 150°
2026-04-30 11:52 57.31170 7.34537 25503 ft 345 kts 150°
2026-04-30 11:53 57.29061 7.36727 25500 ft 346 kts 151°
2026-04-30 11:53 57.26965 7.38893 25507 ft 343 kts 151°
2026-04-30 11:53 57.24916 7.41002 25511 ft 341 kts 151°
2026-04-30 11:53 57.22849 7.43137 25514 ft 340 kts 151°
2026-04-30 11:54 57.20771 7.45289 25510 ft 341 kts 151°
2026-04-30 11:54 57.18694 7.47428 25513 ft 340 kts 151°
2026-04-30 11:54 57.16646 7.49524 25505 ft 341 kts 151°
2026-04-30 11:54 57.14559 7.51665 25517 ft 344 kts 150°
2026-04-30 11:55 57.12463 7.53816 25518 ft 345 kts 150°
2026-04-30 11:55 57.10358 7.55972 25507 ft 344 kts 150°
2026-04-30 11:55 57.08282 7.58093 25507 ft 344 kts 150°
2026-04-30 11:55 57.06191 7.60227 25512 ft 341 kts 150°
2026-04-30 11:56 57.04033 7.62086 25499 ft 342 kts 161°
2026-04-30 11:56 57.01741 7.63362 25500 ft 344 kts 165°
2026-04-30 11:56 56.99496 7.64565 25511 ft 339 kts 162°
2026-04-30 11:56 56.97267 7.66070 25509 ft 341 kts 158°
2026-04-30 11:57 56.95046 7.67730 25519 ft 345 kts 158°
2026-04-30 11:57 56.92834 7.69293 25523 ft 343 kts 159°
2026-04-30 11:57 56.90579 7.70750 25514 ft 343 kts 161°
2026-04-30 11:57 56.88321 7.72178 25517 ft 343 kts 160°
2026-04-30 11:58 56.86076 7.73654 25512 ft 340 kts 159°
2026-04-30 11:58 56.83845 7.75142 25526 ft 340 kts 159°
2026-04-30 11:58 56.81640 7.76618 25507 ft 341 kts 159°
2026-04-30 11:58 56.79407 7.78104 25512 ft 341 kts 160°
2026-04-30 11:59 56.77171 7.79561 25520 ft 341 kts 160°
2026-04-30 11:59 56.74964 7.80991 25518 ft 341 kts 160°
2026-04-30 11:59 56.72705 7.82480 25512 ft 340 kts 159°
2026-04-30 11:59 56.70475 7.83953 25516 ft 341 kts 160°
2026-04-30 12:00 56.68274 7.85383 25524 ft 341 kts 160°
2026-04-30 12:00 56.66034 7.86830 25525 ft 341 kts 160°
2026-04-30 12:00 56.63793 7.88295 25525 ft 341 kts 159°
2026-04-30 12:00 56.61548 7.89769 25533 ft 341 kts 160°
2026-04-30 12:01 56.59342 7.91199 25518 ft 341 kts 160°
2026-04-30 12:01 56.57113 7.92631 25531 ft 338 kts 160°
2026-04-30 12:01 56.54894 7.94069 25533 ft 338 kts 159°
2026-04-30 12:01 56.52681 7.95514 25524 ft 338 kts 159°
2026-04-30 12:02 56.50463 7.96951 25529 ft 338 kts 160°
2026-04-30 12:02 56.48236 7.98377 25522 ft 338 kts 160°
2026-04-30 12:02 56.46050 7.99783 25530 ft 338 kts 159°
2026-04-30 12:02 56.43830 8.01224 25524 ft 338 kts 159°
2026-04-30 12:03 56.41620 8.02651 25532 ft 338 kts 160°
2026-04-30 12:03 56.37184 8.05483 25531 ft 338 kts 160°
2026-04-30 12:03 56.34964 8.06913 25519 ft 339 kts 159°
2026-04-30 12:04 56.32753 8.08334 25528 ft 340 kts 159°
2026-04-30 12:04 56.30515 8.09759 25533 ft 339 kts 159°
2026-04-30 12:04 56.28282 8.11177 25517 ft 339 kts 159°
2026-04-30 12:04 56.26060 8.12596 25523 ft 339 kts 159°
2026-04-30 12:05 56.23836 8.14021 25530 ft 339 kts 159°
2026-04-30 12:05 56.21639 8.15415 25527 ft 339 kts 159°
2026-04-30 12:05 56.19407 8.16829 25531 ft 339 kts 159°
2026-04-30 12:05 56.17207 8.18229 25527 ft 339 kts 159°
2026-04-30 12:06 56.14980 8.19645 25522 ft 339 kts 159°
2026-04-30 12:06 56.12750 8.21054 25526 ft 339 kts 159°
2026-04-30 12:07 56.12016 8.21516 25530 ft 339 kts 159°
2026-04-30 12:08 56.09818 8.22902 25520 ft 339 kts 159°
2026-04-30 12:08 56.07601 8.24310 25521 ft 339 kts 159°
2026-04-30 12:08 56.05461 8.25736 25171 ft 316 kts 158°
2026-04-30 12:08 56.03456 8.27120 24665 ft 301 kts 157°
2026-04-30 12:09 56.01539 8.28458 24142 ft 289 kts 156°
2026-04-30 12:09 55.99719 8.29721 23534 ft 279 kts 157°
2026-04-30 12:09 55.97924 8.30933 22898 ft 272 kts 157°
2026-04-30 12:09 55.96172 8.32109 22284 ft 265 kts 156°
2026-04-30 12:10 55.94465 8.33275 21685 ft 259 kts 156°
2026-04-30 12:10 55.92820 8.34400 21106 ft 254 kts 156°
2026-04-30 12:10 55.91177 8.35506 20531 ft 249 kts 156°
2026-04-30 12:10 55.89608 8.36718 19964 ft 241 kts 142°
2026-04-30 12:11 55.88540 8.38886 19397 ft 230 kts 110°
2026-04-30 12:11 55.88260 8.41587 18873 ft 221 kts 87°
2026-04-30 12:11 55.88339 8.44303 18285 ft 217 kts 94°
2026-04-30 12:11 55.87813 8.46799 17691 ft 220 kts 124°
2026-04-30 12:12 55.86642 8.48572 17147 ft 221 kts 141°
2026-04-30 12:12 55.85528 8.50321 16589 ft 211 kts 122°
2026-04-30 12:12 55.83386 8.56425 15115 ft 201 kts 122°
2026-04-30 12:12 55.80175 8.64216 12970 ft 190 kts 121°
2026-04-30 12:13 55.77112 8.71740 10920 ft 185 kts 122°
2026-04-30 12:13 55.74138 8.79040 9355 ft 196 kts 123°
2026-04-30 12:13 55.72501 8.88560 8644 ft 220 kts 95°
2026-04-30 12:13 55.71656 8.98075 6814 ft 185 kts 97°
2026-04-30 12:14 55.70866 9.07132 4763 ft 188 kts 96°
2026-04-30 12:14 55.70637 9.09835 4145 ft 189 kts 97°
2026-04-30 12:14 55.70454 9.12123 3478 ft 190 kts 97°
2026-04-30 12:14 55.70272 9.14427 2961 ft 184 kts 95°
2026-04-30 12:15 55.70220 9.16591 2778 ft 169 kts 89°
2026-04-30 12:15 55.70235 9.18719 2191 ft 178 kts 85°
2026-04-30 12:15 55.70555 9.20760 1873 ft 167 kts 60°
2026-04-30 12:15 55.71222 9.22308 1675 ft 157 kts 38°
2026-04-30 12:16 55.72112 9.23287 1604 ft 146 kts
2026-04-30 12:16 55.73067 9.23213 1506 ft 137 kts 336°
2026-04-30 12:16 55.73791 9.22210 1256 ft 131 kts 303°
2026-04-30 12:16 55.74135 9.20679 873 ft 137 kts 281°
2026-04-30 12:17 55.74083 9.17218 241 ft 127 kts 265°
2026-04-30 12:17 55.74049 9.15875 237 ft 93 kts 268°
2026-04-30 12:17 55.74033 9.15163 242 ft 40 kts 267°
2026-04-30 12:18 55.74023 9.14850 242 ft 24 kts 266°
2026-04-30 12:18 55.74015 9.14588 241 ft 19 kts 268°
2026-04-30 12:18 55.74109 9.14494 238 ft 19 kts 356°
2026-04-30 12:18 55.74235 9.14480 237 ft 17 kts 356°
2026-04-30 12:19 55.74349 9.14470 237 ft 16 kts 357°
2026-04-30 12:19 55.74441 9.14516 237 ft 15 kts 81°
2026-04-30 12:19 55.74447 9.14676 237 ft 7 kts 61°
2026-04-30 12:19 55.74490 9.14685 237 ft 7 kts 355°
2026-04-30 12:20 55.74531 9.14681 237 ft 0 kts 357°